Date,TemperatureHighF,TemperatureAvgF,TemperatureLowF,DewpointHighF,DewpointAvgF,DewpointLowF,HumidityHigh,HumidityAvg,HumidityLow,PressureMaxIn,PressureMinIn,WindSpeedMaxMPH,WindSpeedAvgMPH,GustSpeedMaxMPH,PrecipitationSumIn
2013-3-1,30.6,27.3,25.0,27.5,25.6,22.9,99,93,80,30.31,30.15,15,10,17,0.00
2013-3-2,33.4,24.1,6.4,24.4,18.0,5.8,99,78,54,30.34,30.28,14,7,17,0.00
2013-3-3,38.7,22.8,2.5,24.7,15.8,1.2,99,76,51,30.28,30.08,12,4,14,0.00
2013-3-4,38.7,33.6,28.8,32.1,30.2,24.2,99,88,73,30.09,29.85,22,15,25,0.00
2013-3-5,34.0,31.1,28.8,32.3,28.4,23.7,99,90,76,30.22,29.93,25,14,34,0.01
2013-3-6,34.2,25.2,15.6,25.1,21.5,15.4,99,86,67,30.42,30.23,18,9,25,0.00
2013-3-7,37.2,29.3,22.3,28.8,24.9,20.6,99,84,66,30.48,30.38,10,6,12,0.00
2013-3-8,43.9,35.1,24.8,35.6,31.3,24.6,99,87,70,30.45,30.23,12,8,15,0.00
2013-3-9,51.8,40.0,34.9,41.6,37.7,34.4,99,92,66,30.22,29.80,14,9,17,0.80
2013-3-10,49.8,44.8,37.8,49.6,44.6,37.5,99,99,89,29.84,29.62,18,5,24,0.67
2013-3-11,38.5,33.3,30.0,38.2,32.2,26.0,99,96,83,30.02,29.74,20,15,25,0.02
2013-3-12,38.7,31.4,25.7,31.5,26.6,20.7,95,83,69,30.27,30.01,28,15,35,0.02
2013-3-13,39.2,29.8,23.2,25.7,20.9,17.2,99,71,47,30.48,30.27,18,11,31,0.00
2013-3-14,56.5,39.1,24.6,43.7,31.3,24.1,99,75,50,30.43,30.14,14,5,17,0.00
2013-3-15,62.1,45.0,30.4,52.5,39.8,30.1,99,83,62,30.14,29.74,12,4,14,0.00
2013-3-16,44.4,38.1,34.7,44.2,36.5,33.7,99,94,84,30.17,29.71,21,11,24,0.00
2013-3-17,34.3,32.7,31.5,33.1,31.6,30.6,97,96,94,30.18,30.16,16,14,19,0.00
2013-3-18,48.4,36.3,29.1,40.4,31.6,20.8,99,85,52,30.06,29.77,32,15,33,0.05
2013-3-19,42.8,32.5,23.7,23.6,18.7,13.0,75,58,37,30.26,30.04,21,12,30,0.00
2013-3-20,32.4,25.5,17.8,22.3,14.1,7.2,82,62,45,30.35,30.19,23,15,28,0.00
2013-3-21,36.3,25.9,14.5,21.5,16.2,11.3,89,68,44,30.19,30.05,12,6,14,0.00
2013-3-22,41.5,31.8,21.4,29.0,22.5,18.8,96,71,43,30.13,30.06,10,3,14,0.00
2013-3-23,51.3,39.6,32.5,35.2,30.3,27.3,99,71,45,30.14,29.97,23,9,27,0.00
2013-3-24,35.2,30.2,28.8,35.0,30.0,28.5,99,99,99,30.03,29.77,24,17,28,0.00
2013-3-25,34.2,30.1,28.0,31.3,28.1,25.5,99,93,73,30.25,29.92,16,10,21,0.02
2013-3-26,32.5,30.3,27.5,28.0,26.6,24.7,90,86,83,30.30,30.26,13,9,17,0.00
2013-3-27,51.1,36.2,21.4,35.4,26.8,20.8,99,72,39,30.45,30.36,6,2,6,0.00
2013-3-28,50.5,38.4,26.6,37.6,31.2,25.6,99,77,53,30.42,30.31,16,6,16,0.00
2013-3-29,62.8,46.1,33.1,46.2,38.4,32.1,99,77,40,30.35,30.24,14,5,14,0.00
2013-3-30,55.2,46.3,36.5,47.8,42.9,36.2,99,89,63,30.26,29.97,17,7,17,0.00
2013-3-31,62.6,51.2,40.1,52.3,43.5,31.8,99,78,43,30.07,29.91,23,11,23,0.00